• In Latvia
  • List of Countries
  • For 7 days
  • Water Temperature
  • Satellite Maps
  • Weather Map
  • Weather Widgets
  • user-avatar
    Login

    Hourly Weather Merkulaevka

    Today, 24 April, Tuesday

    Time Temperature Precipitation Wind Pressure Humidity
    00:00 +7°C° 0 mm 1 mps 706 mmHg 77%
    01:00 +7°C° 0 mm 1 mps 706 mmHg 76%
    02:00 +6°C° 0 mm 1 mps 706 mmHg 76%
    03:00 +6°C° 0 mm 1 mps 706 mmHg 77%
    04:00 +6°C° 0 mm 1 mps 706 mmHg 76%
    05:00 +6°C° 0 mm 1 mps 706 mmHg 76%
    06:00 +6°C° 0 mm 1 mps 707 mmHg 76%
    07:00 +8°C° 0 mm 1 mps 707 mmHg 66%
    08:00 +11°C° 0 mm 1 mps 708 mmHg 56%
    09:00 +14°C° 0 mm 1 mps 708 mmHg 45%
    10:00 +15°C° 0 mm 2 mps 709 mmHg 42%
    11:00 +15°C° 0 mm 2 mps 709 mmHg 39%
    12:00 +16°C° 0 mm 2 mps 709 mmHg 36%
    13:00 +16°C° 0 mm 2 mps 709 mmHg 38%
    14:00 +16°C° 0 mm 2 mps 709 mmHg 39%
    15:00 +17°C° 0 mm 2 mps 709 mmHg 41%
    16:00 +16°C° 0 mm 2 mps 709 mmHg 47%
    17:00 +15°C° 0 mm 1 mps 709 mmHg 53%
    18:00 +14°C° 0 mm 1 mps 708 mmHg 59%
    19:00 +12°C° 0 mm 1 mps 708 mmHg 65%
    20:00 +10°C° 0 mm 1 mps 708 mmHg 71%
    21:00 +8°C° 0 mm 1 mps 708 mmHg 78%
    22:00 +8°C° 0 mm 1 mps 708 mmHg 78%
    23:00 +7°C° 0 mm 2 mps 708 mmHg 78%

    Tomorrow, 25 April, Wednesday

    Time Temperature Precipitation Wind Pressure Humidity
    00:00 +7°C° 0 mm 2 mps 708 mmHg 78%
    01:00 +7°C° 0 mm 2 mps 708 mmHg 73%
    02:00 +7°C° 0 mm 2 mps 708 mmHg 69%
    03:00 +6°C° 0 mm 2 mps 707 mmHg 64%
    04:00 +6°C° 0 mm 2 mps 707 mmHg 59%
    05:00 +6°C° 0 mm 2 mps 708 mmHg 54%
    06:00 +7°C° 0 mm 2 mps 708 mmHg 49%
    07:00 +10°C° 0 mm 2 mps 708 mmHg 44%
    08:00 +14°C° 0 mm 1 mps 708 mmHg 39%
    09:00 +19°C° 0 mm 1 mps 709 mmHg 34%
    10:00 +20°C° 0 mm 1 mps 709 mmHg 33%
    11:00 +20°C° 0 mm 2 mps 709 mmHg 32%
    12:00 +21°C° 0 mm 2 mps 709 mmHg 31%
    13:00 +21°C° 0 mm 2 mps 709 mmHg 34%
    14:00 +21°C° 0 mm 2 mps 709 mmHg 37%
    15:00 +21°C° 0 mm 3 mps 709 mmHg 40%
    16:00 +19°C° 0 mm 2 mps 708 mmHg 47%
    17:00 +18°C° 0 mm 2 mps 708 mmHg 54%
    18:00 +18°C° 0 mm 1 mps 708 mmHg 61%
    19:00 +15°C° 0 mm 1 mps 708 mmHg 66%
    20:00 +14°C° 0 mm 1 mps 708 mmHg 71%
    21:00 +12°C° 0 mm 1 mps 708 mmHg 76%
    22:00 +12°C° 0 mm 1 mps 707 mmHg 76%
    23:00 +11°C° 0 mm 1 mps 707 mmHg 76%

    Day after tomorrow, 26 April, Thursday

    Time Temperature Precipitation Wind Pressure Humidity
    00:00 +11°C° 0 mm 1 mps 707 mmHg 76%
    01:00 +11°C° 0 mm 1 mps 707 mmHg 75%
    02:00 +11°C° 0 mm 1 mps 707 mmHg 74%
    03:00 +11°C° 0 mm 1 mps 707 mmHg 72%
    04:00 +11°C° 0 mm 1 mps 707 mmHg 71%
    05:00 +11°C° 0 mm 1 mps 707 mmHg 70%
    06:00 +11°C° 0 mm 1 mps 708 mmHg 69%
    07:00 +14°C° 0 mm 1 mps 708 mmHg 62%
    08:00 +18°C° 0 mm 1 mps 709 mmHg 55%
    09:00 +19°C° 0 mm 0 mps 709 mmHg 48%
    10:00 +22°C° 0 mm 1 mps 709 mmHg 46%
    11:00 +23°C° 0 mm 1 mps 709 mmHg 44%
    12:00 +24°C° 0 mm 1 mps 709 mmHg 43%
    13:00 +24°C° 0 mm 2 mps 709 mmHg 45%
    14:00 +24°C° 0 mm 2 mps 709 mmHg 47%
    15:00 +23°C° 0 mm 2 mps 708 mmHg 50%
    16:00 +21°C° 0 mm 2 mps 708 mmHg 55%
    17:00 +21°C° 0 mm 2 mps 708 mmHg 61%
    18:00 +20°C° 0 mm 2 mps 707 mmHg 67%
    19:00 +19°C° 0 mm 1 mps 707 mmHg 73%
    20:00 +16°C° 0 mm 1 mps 707 mmHg 79%
    21:00 +15°C° 0 mm 1 mps 707 mmHg 85%
    22:00 +14°C° 0 mm 1 mps 707 mmHg 86%
    23:00 +14°C° 0 mm 1 mps 707 mmHg 86%

    27 April, Friday

    Time Temperature Precipitation Wind Pressure Humidity
    00:00 +14°C° 0 mm 2 mps 707 mmHg 86%
    01:00 +13°C° 0 mm 1 mps 706 mmHg 85%
    02:00 +13°C° 0 mm 1 mps 706 mmHg 84%
    03:00 +13°C° 0 mm 1 mps 706 mmHg 83%
    04:00 +13°C° 0 mm 1 mps 706 mmHg 80%
    05:00 +13°C° 0 mm 1 mps 706 mmHg 77%
    06:00 +13°C° 0 mm 1 mps 705 mmHg 74%
    07:00 +16°C° 0 mm 1 mps 706 mmHg 64%
    08:00 +21°C° 0 mm 1 mps 706 mmHg 54%
    09:00 +22°C° 0 mm 0 mps 707 mmHg 44%
    10:00 +25°C° 0 mm 1 mps 706 mmHg 42%
    11:00 +26°C° 0 mm 1 mps 706 mmHg 39%
    12:00 +27°C° 0 mm 2 mps 706 mmHg 36%
    13:00 +27°C° 0 mm 2 mps 706 mmHg 37%
    14:00 +27°C° 0 mm 2 mps 706 mmHg 38%
    15:00 +26°C° 0 mm 2 mps 706 mmHg 39%
    16:00 +25°C° 0.4 mm 2 mps 706 mmHg 48%
    17:00 +24°C° 0.4 mm 2 mps 706 mmHg 57%
    18:00 +22°C° 0.4 mm 1 mps 705 mmHg 66%
    19:00 +21°C° 0.1 mm 1 mps 705 mmHg 71%
    20:00 +19°C° 0.1 mm 1 mps 706 mmHg 76%
    21:00 +16°C° 0.1 mm 1 mps 706 mmHg 80%
    22:00 +16°C° 0 mm 1 mps 706 mmHg 81%
    23:00 +15°C° 0 mm 1 mps 706 mmHg 81%

    28 April, Saturday

    Time Temperature Precipitation Wind Pressure Humidity
    00:00 +15°C° 0 mm 1 mps 706 mmHg 82%
    01:00 +14°C° 0 mm 1 mps 706 mmHg 83%
    02:00 +14°C° 0 mm 1 mps 706 mmHg 83%
    03:00 +13°C° 0 mm 1 mps 706 mmHg 84%
    04:00 +13°C° 0 mm 1 mps 706 mmHg 84%
    05:00 +13°C° 0 mm 1 mps 707 mmHg 84%
    06:00 +13°C° 0 mm 1 mps 707 mmHg 84%
    07:00 +16°C° 0 mm 1 mps 707 mmHg 76%
    08:00 +19°C° 0 mm 1 mps 708 mmHg 69%
    09:00 +22°C° 0 mm 1 mps 709 mmHg 62%
    10:00 +22°C° 0.1 mm 1 mps 709 mmHg 60%
    11:00 +23°C° 0.1 mm 2 mps 709 mmHg 58%
    12:00 +23°C° 0.1 mm 2 mps 709 mmHg 57%
    13:00 +23°C° 0.3 mm 2 mps 709 mmHg 59%
    14:00 +23°C° 0.3 mm 2 mps 709 mmHg 62%
    15:00 +21°C° 0.3 mm 3 mps 709 mmHg 65%
    16:00 +21°C° 0.2 mm 2 mps 709 mmHg 69%
    17:00 +20°C° 0.2 mm 2 mps 709 mmHg 74%
    18:00 +19°C° 0.2 mm 2 mps 709 mmHg 78%
    19:00 +18°C° 0.1 mm 2 mps 709 mmHg 83%
    20:00 +16°C° 0.1 mm 2 mps 709 mmHg 88%
    21:00 +15°C° 0.1 mm 2 mps 709 mmHg 93%
    22:00 +14°C° 0 mm 2 mps 709 mmHg 93%
    23:00 +14°C° 0 mm 2 mps 709 mmHg 93%

    29 April, Sunday

    Time Temperature Precipitation Wind Pressure Humidity
    00:00 +14°C° 0 mm 2 mps 709 mmHg 93%
    01:00 +13°C° 0 mm 2 mps 709 mmHg 92%
    02:00 +13°C° 0 mm 2 mps 709 mmHg 91%
    03:00 +13°C° 0 mm 2 mps 709 mmHg 90%
    04:00 +13°C° 0 mm 2 mps 709 mmHg 89%
    05:00 +13°C° 0 mm 2 mps 709 mmHg 87%
    06:00 +13°C° 0 mm 2 mps 709 mmHg 86%
    07:00 +15°C° 0 mm 2 mps 710 mmHg 78%
    08:00 +17°C° 0 mm 2 mps 710 mmHg 71%
    09:00 +20°C° 0 mm 2 mps 710 mmHg 63%
    10:00 +21°C° 0 mm 3 mps 710 mmHg 59%
    11:00 +22°C° 0 mm 3 mps 710 mmHg 55%
    12:00 +25°C° 0 mm 3 mps 710 mmHg 51%
    13:00 +25°C° 0 mm 4 mps 710 mmHg 52%
    14:00 +25°C° 0 mm 4 mps 709 mmHg 53%
    15:00 +25°C° 0 mm 4 mps 709 mmHg 54%
    16:00 +24°C° 0 mm 3 mps 709 mmHg 59%
    17:00 +22°C° 0 mm 3 mps 708 mmHg 64%
    18:00 +21°C° 0 mm 3 mps 708 mmHg 69%
    19:00 +19°C° 0 mm 3 mps 708 mmHg 75%
    20:00 +17°C° 0 mm 3 mps 707 mmHg 81%
    21:00 +15°C° 0 mm 2 mps 707 mmHg 86%
    22:00 +15°C° 0 mm 2 mps 707 mmHg 87%
    23:00 +14°C° 0 mm 2 mps 707 mmHg 88%
    Show more